map of ABT home
Great Circle Mapper logo
ABT - Airport
Location
City:  Al Baha, Saudi Arabia
ICAO / IATA:OEBA / ABT

Details
Type:Airport (Aerodrome, Airfield)
Latitude:2017'46"N (20.296139)
Longitude:4138'03"E (41.634277)
Datum:WGS 1984
Elevation:5486 ft (1672 m)
Variation:3.0E (WMM2015 magnetic declination)
Runways:1
Longest:10991 × 148 ft (3350 × 45 m), paved

Time
Time Zone:UTC+3
Local Time:

Weather
METAR:OEBA 191700Z 09004KT CAVOK 19/06 Q1024 NOSIG
TAF:OEBA 182230Z 1900/2006 VRB04KT 9999 FEW030
BECMG 1908/1910 13011KT SCT030

Related Locations
Nearby:
Farthest:ZTA: 12435 mi / 20012 km
Tureia, PF

Find:

   beyond  
but within

Other Information
Maps:
NOTAMs:
Links:
Sources:

  
flag of Saudi Arabia   

Sectional Chart

Flight Planning
at skyvector.com

Satellite Image

Google Maps Satellite View

 

Copyright © 2004-2014 Karl L. Swartz. All rights reserved.
The Great Circle Mapper name and logo are trademarks of the Great Circle Mapper.
All other trademarks mentioned herein belong to their respective owners.
Please see credits for attibutions and further copyright information.

  Follow gcmap on Facebook Follow gcmap on Twitter

hCard Microformat

Geo Microformat